Location: Ago
(8.4667°N, 4.4833°E)
Time: 23:32:13
(UTC+00:00)

FengYun 1-2 T - Pass Details

Date: 18 September 2020
Orbit: 847 x 881 km, 98.7° (Epoch: 20 October)

Event Time Altitude Azimuth Distance (km) Brightness Sun altitude
Rises 18:03:34 0° 171° (S) 3,408 7.2 -6.6°
Reaches altitude 10° 18:05:55 10° 172° (S) 2,475 6.5 -7.2°
Maximum altitude 18:11:24 76° 257° (WSW) 884 4.5 -8.5°
Drops below altitude 10° 18:16:56 10° 343° (NNW) 2,494 6.9 -9.9°
Sets 18:19:20 0° 345° (NNW) 3,435 7.6 -10.5°
